Altus AFB, OK

8:24 PM CDT on July 26, 2017 (GMT -0500)
Altus Air Force Base

Weather History for KLTS - March, 2013

Change the Weather History Date:

Thursday, March 7, 2013

  Actual Average Record
Temperature  
Mean Temperature 53 °F -  
Max Temperature 71 °F 59 °F 84 °F (2006)
Min Temperature 35 °F 34 °F 21 °F (2008)
Degree Days  
Heating Degree Days 12    
Growing Degree Days 3 (Base 50)    
Moisture  
Dew Point 29 °F    
Average Humidity 43    
Maximum Humidity 63    
Minimum Humidity 23    
Precipitation  
Precipitation 0.00 in - - ()
Sea Level Pressure  
Sea Level Pressure 30.06 in    
Wind  
Wind Speed 13 mph (SE)    
Max Wind Speed 22 mph    
Max Gust Speed 29 mph    
Visibility 10 miles    
Events      
Averages and records for this station are not official NWS values.
T = Trace of Precipitation, MM = Missing Value Source: NWS Daily Summary

Daily Weather History Graph

Daily Weather History Graph

Search for Another Location

Airport or City:

Trip Planner

Search our weather history database for the weather conditions in past years. The results will help you decide how hot, cold, wet, or windy it might be!

Date:

Astronomy

Mar. 07, 2013 Rise Set
Actual Time 6:58 AM CST 6:38 PM CST
Civil Twilight 6:32 AM CST 7:03 PM CST
Nautical Twilight 6:03 AM CST 7:32 PM CST
Astronomical Twilight 5:34 AM CST 8:02 PM CST
Moon 3:50 AM CST (3/7) 2:36 PM CST (3/7)
Length of Visible Light 12h 30m
Length of Day
11h 40m
Waning Crescent, 20% of the Moon is Illuminated
Mar 7
Waning Crescent
Mar 11
New
Mar 19
First Quarter
Mar 27
Full
Apr 2
Last Quarter

Hourly Weather History & Observations

Time (CST) Temp. Windchill Dew Point Humidity Pressure Visibility Wind Dir Wind Speed Gust Speed Precip Events Conditions
12:58 AM 38.5 °F 32.1 °F 23.4 °F 55% 30.13 in 10.0 mi SE 9.2 mph - N/A   Clear
1:58 AM 38.7 °F 30.9 °F 23.0 °F 53% 30.12 in 10.0 mi SE 12.7 mph - N/A   Clear
2:58 AM 37.4 °F 30.8 °F 23.2 °F 57% 30.10 in 10.0 mi SE 9.2 mph - N/A   Clear
3:58 AM 39.2 °F 34.2 °F 22.5 °F 51% 30.08 in 10.0 mi SE 6.9 mph - N/A   Clear
4:58 AM 37.6 °F 30.5 °F 23.0 °F 56% 30.08 in 10.0 mi SSE 10.4 mph - N/A   Clear
5:58 AM 36.1 °F 28.2 °F 23.7 °F 61% 30.09 in 10.0 mi SSE 11.5 mph - N/A   Clear
6:58 AM 35.4 °F 27.3 °F 24.1 °F 63% 30.11 in 10.0 mi SSE 11.5 mph - N/A   Clear
7:58 AM 39.4 °F 32.3 °F 25.2 °F 57% 30.13 in 10.0 mi SSE 11.5 mph - N/A   Clear
8:58 AM 46.4 °F 39.2 °F 25.0 °F 43% 30.13 in 10.0 mi South 18.4 mph - N/A   Clear
9:58 AM 53.8 °F - 24.8 °F 33% 30.13 in 10.0 mi SSE 18.4 mph - N/A   Clear
10:58 AM 58.5 °F - 24.6 °F 27% 30.10 in 10.0 mi South 19.6 mph 28.8 mph N/A   Clear
11:58 AM 62.4 °F - 24.4 °F 24% 30.08 in 10.0 mi South 20.7 mph - N/A   Clear
12:58 PM 64.8 °F - 27.5 °F 25% 30.06 in 10.0 mi SSE 20.7 mph 27.6 mph N/A   Clear
1:58 PM 67.3 °F - 27.7 °F 23% 30.03 in 10.0 mi South 21.9 mph - N/A   Clear
2:58 PM 69.4 °F - 30.4 °F 23% 30.01 in 10.0 mi South 19.6 mph 23.0 mph N/A   Clear
3:58 PM 71.1 °F - 32.4 °F 24% 29.98 in 10.0 mi SSE 21.9 mph 26.5 mph N/A   Clear
4:58 PM 71.1 °F - 32.7 °F 24% 29.97 in 10.0 mi SE 16.1 mph - N/A   Clear
5:58 PM 68.4 °F - 33.8 °F 28% 29.98 in 10.0 mi SE 12.7 mph - N/A   Clear
6:58 PM 58.1 °F - 34.5 °F 41% 30.00 in 10.0 mi ESE 11.5 mph - N/A   Partly Cloudy
7:58 PM 58.5 °F - 33.6 °F 39% 30.00 in 10.0 mi SE 16.1 mph 21.9 mph N/A   Partly Cloudy
8:58 PM 56.1 °F - 35.4 °F 46% 30.01 in 10.0 mi SE 15.0 mph - N/A   Mostly Cloudy
9:58 PM 54.1 °F - 36.9 °F 52% 30.02 in 10.0 mi ESE 9.2 mph - N/A   Clear
10:58 PM 53.6 °F - 38.1 °F 56% 30.02 in 10.0 mi SE 15.0 mph - N/A   Overcast
11:58 PM 52.7 °F - 40.3 °F 63% 30.02 in 10.0 mi ESE 11.5 mph - N/A   Overcast